Weather History for KMVN - December, 2013

Change the Weather History Date:

Sunday, December 22, 2013

  Actual Average Record
Temperature  
Mean Temperature 34 °F -  
Max Temperature 39 °F 36 °F 55 °F (2006)
Min Temperature 30 °F 22 °F 0 °F (2000)
Degree Days  
Heating Degree Days 30    
Moisture  
Dew Point 32 °F    
Average Humidity 86    
Maximum Humidity 100    
Minimum Humidity 70    
Precipitation  
Precipitation 0.18 in - - ()
Sea Level Pressure  
Sea Level Pressure 29.93 in    
Wind  
Wind Speed 8 mph (West)    
Max Wind Speed 13 mph    
Max Gust Speed 17 mph    
Visibility 8 miles    
Events      
Averages and records for this station are not official NWS values.
T = Trace of Precipitation, MM = Missing Value Source: NWS Daily Summary

Daily Weather History Graph

Daily Weather History Graph

Search for Another Location

Airport or City:

Trip Planner

Search our weather history database for the weather conditions in past years. The results will help you decide how hot, cold, wet, or windy it might be!

Date:

Astronomy

Dec. 22, 2013 Rise Set
Actual Time 7:09 AM CST 4:39 PM CST
Civil Twilight 6:39 AM CST 5:08 PM CST
Nautical Twilight 6:06 AM CST 5:42 PM CST
Astronomical Twilight 5:34 AM CST 6:14 PM CST
Moon 9:47 PM CST (12/22) 10:09 AM CST (12/22)
Length of Visible Light 10h 29m
Length of Day
9h 29m
Waning Gibbous, 76% of the Moon is Illuminated
Dec 22
Waning Gibbous
Dec 25
Last Quarter
Jan 1
New
Jan 7
First Quarter
Jan 15
Full

Hourly Weather History & Observations

Time (CST) Temp. Windchill Dew Point Humidity Pressure Visibility Wind Dir Wind Speed Gust Speed Precip Events Conditions
12:15 AM 35.6 °F 29.9 °F 33.8 °F 93% 29.63 in 2.5 mi West 6.9 mph - N/A   Overcast
12:35 AM 35.6 °F 30.7 °F 33.8 °F 93% 29.62 in 1.5 mi West 5.8 mph - N/A   Overcast
12:55 AM 35.6 °F 32.8 °F 33.8 °F 93% 29.64 in 2.5 mi West 3.5 mph - N/A   Overcast
1:15 AM 35.6 °F 29.9 °F 33.8 °F 93% 29.64 in 3.0 mi WSW 6.9 mph - N/A   Overcast
1:35 AM 35.6 °F 28.6 °F 33.8 °F 93% 29.66 in 3.0 mi WSW 9.2 mph - N/A   Overcast
1:55 AM 35.6 °F 29.9 °F 35.6 °F 100% 29.68 in 2.0 mi WSW 6.9 mph - N/A   Overcast
2:15 AM 35.6 °F 27.1 °F 33.8 °F 93% 29.69 in 1.5 mi WSW 12.7 mph - N/A   Overcast
2:35 AM 35.6 °F 28.0 °F 33.8 °F 93% 29.69 in 1.5 mi WSW 10.4 mph - N/A   Overcast
2:55 AM 35.6 °F 28.0 °F 33.8 °F 93% 29.69 in 1.5 mi WSW 10.4 mph 16.1 mph N/A   Overcast
3:15 AM 35.6 °F 28.0 °F 35.6 °F 100% 29.70 in 3.0 mi SW 10.4 mph - N/A   Overcast
3:35 AM 35.6 °F 28.6 °F 33.8 °F 93% 29.69 in 3.0 mi WSW 9.2 mph - N/A   Overcast
3:55 AM 35.6 °F 27.5 °F 33.8 °F 93% 29.71 in 4.0 mi SW 11.5 mph - N/A   Overcast
4:15 AM 35.6 °F 27.5 °F 33.8 °F 93% 29.72 in 3.0 mi SW 11.5 mph - N/A   Overcast
4:35 AM 35.6 °F 28.0 °F 35.6 °F 100% 29.73 in 1.2 mi SW 10.4 mph - N/A   Overcast
4:55 AM 35.6 °F 27.5 °F 35.6 °F 100% 29.74 in 1.2 mi SW 11.5 mph - N/A   Overcast
5:15 AM 35.6 °F 28.0 °F 35.6 °F 100% 29.74 in 1.5 mi SW 10.4 mph 16.1 mph N/A   Overcast
5:35 AM 35.6 °F 28.0 °F 35.6 °F 100% 29.77 in 2.5 mi SW 10.4 mph - N/A   Overcast
5:55 AM 35.6 °F 29.2 °F 35.6 °F 100% 29.77 in 1.8 mi WSW 8.1 mph - N/A   Overcast
6:15 AM 35.6 °F 28.0 °F 35.6 °F 100% 29.80 in 1.5 mi SW 10.4 mph - N/A   Overcast
6:35 AM 37.4 °F 30.8 °F 35.6 °F 93% 29.81 in 1.8 mi SW 9.2 mph - N/A   Overcast
6:55 AM 37.4 °F 30.8 °F 35.6 °F 93% 29.81 in 3.0 mi SSW 9.2 mph - N/A   Overcast
7:15 AM 37.4 °F 30.8 °F 35.6 °F 93% 29.82 in 5.0 mi SSW 9.2 mph - N/A   Overcast
7:35 AM 37.4 °F 30.3 °F 35.6 °F 93% 29.83 in 7.0 mi SW 10.4 mph - N/A   Overcast
7:55 AM 37.4 °F 30.3 °F 37.4 °F 100% 29.83 in 5.0 mi WSW 10.4 mph - N/A   Overcast
8:15 AM 37.4 °F 30.8 °F 37.4 °F 100% 29.85 in 5.0 mi WSW 9.2 mph - N/A   Overcast
8:35 AM 37.4 °F 32.8 °F 35.6 °F 93% 29.85 in 10.0 mi West 5.8 mph 16.1 mph N/A   Overcast
8:55 AM 37.4 °F 31.4 °F 35.6 °F 93% 29.87 in 10.0 mi West 8.1 mph - N/A   Overcast
9:15 AM 37.4 °F 30.8 °F 33.8 °F 87% 29.88 in 10.0 mi West 9.2 mph - N/A   Overcast
9:35 AM 37.4 °F 31.4 °F 33.8 °F 87% 29.90 in 10.0 mi West 8.1 mph 17.3 mph N/A   Overcast
9:55 AM 39.2 °F 33.0 °F 35.6 °F 87% 29.90 in 10.0 mi West 9.2 mph - N/A   Overcast
10:15 AM 39.2 °F 33.6 °F 33.8 °F 81% 29.91 in 10.0 mi West 8.1 mph - N/A   Overcast
10:35 AM 39.2 °F 33.0 °F 33.8 °F 81% 29.92 in 10.0 mi WSW 9.2 mph - N/A   Overcast
10:55 AM 39.2 °F 33.6 °F 33.8 °F 81% 29.93 in 10.0 mi WSW 8.1 mph - N/A   Overcast
11:15 AM 39.2 °F 34.2 °F 33.8 °F 81% 29.94 in 10.0 mi West 6.9 mph - N/A   Overcast
11:35 AM 39.2 °F 34.2 °F 33.8 °F 81% 29.93 in 10.0 mi West 6.9 mph - N/A   Overcast
11:55 AM 39.2 °F 33.0 °F 32.0 °F 75% 29.94 in 10.0 mi West 9.2 mph 16.1 mph N/A   Overcast
12:15 PM 39.2 °F 33.6 °F 32.0 °F 75% 29.93 in 10.0 mi West 8.1 mph 16.1 mph N/A   Overcast
12:35 PM 39.2 °F 33.6 °F 33.8 °F 81% 29.93 in 10.0 mi West 8.1 mph - N/A   Overcast
12:55 PM 39.2 °F 33.6 °F 32.0 °F 75% 29.94 in 10.0 mi West 8.1 mph - N/A   Overcast
1:15 PM 37.4 °F 32.1 °F 30.2 °F 75% 29.95 in 10.0 mi WNW 6.9 mph - N/A   Overcast
1:35 PM 37.4 °F 31.4 °F 32.0 °F 81% 29.95 in 10.0 mi West 8.1 mph - N/A   Overcast
1:55 PM 37.4 °F 31.4 °F 30.2 °F 75% 29.96 in 10.0 mi West 8.1 mph - N/A   Overcast
2:15 PM 37.4 °F 30.8 °F 30.2 °F 75% 29.98 in 10.0 mi West 9.2 mph - N/A   Overcast
2:35 PM 37.4 °F 30.8 °F 30.2 °F 75% 29.99 in 10.0 mi West 9.2 mph - N/A   Overcast
2:55 PM 37.4 °F 31.4 °F 28.4 °F 70% 30.00 in 10.0 mi WNW 8.1 mph - N/A   Overcast
3:15 PM 35.6 °F 28.6 °F 28.4 °F 75% 30.01 in 10.0 mi West 9.2 mph - N/A   Overcast
3:35 PM 35.6 °F 29.9 °F 30.2 °F 81% 30.01 in 10.0 mi WNW 6.9 mph - N/A   Overcast
3:55 PM 35.6 °F 30.7 °F 28.4 °F 75% 30.02 in 10.0 mi WNW 5.8 mph - N/A   Overcast
4:15 PM 35.6 °F 29.2 °F 28.4 °F 75% 30.03 in 10.0 mi West 8.1 mph - N/A   Overcast
4:35 PM 35.6 °F 30.7 °F 28.4 °F 75% 30.05 in 10.0 mi WNW 5.8 mph - N/A   Overcast
4:55 PM 35.6 °F 30.7 °F 28.4 °F 75% 30.06 in 10.0 mi WNW 5.8 mph - N/A   Overcast
5:15 PM 33.8 °F 28.6 °F 28.4 °F 81% 30.07 in 10.0 mi WNW 5.8 mph - N/A   Overcast
5:35 PM 33.8 °F 28.6 °F 28.4 °F 81% 30.08 in 10.0 mi WNW 5.8 mph - N/A   Overcast
5:55 PM 33.8 °F 27.7 °F 28.4 °F 81% 30.07 in 10.0 mi WNW 6.9 mph - N/A   Overcast
6:15 PM 33.8 °F 27.7 °F 28.4 °F 81% 30.08 in 10.0 mi WNW 6.9 mph - N/A   Overcast
6:35 PM 33.8 °F 27.0 °F 28.4 °F 81% 30.09 in 10.0 mi WNW 8.1 mph - N/A   Overcast
6:55 PM 33.8 °F 27.7 °F 28.4 °F 81% 30.10 in 10.0 mi WNW 6.9 mph 16.1 mph N/A   Overcast
7:15 PM 33.8 °F 28.6 °F 28.4 °F 81% 30.11 in 10.0 mi NW 5.8 mph - N/A   Overcast
7:35 PM 33.8 °F 28.6 °F 28.4 °F 81% 30.12 in 10.0 mi NW 5.8 mph - N/A   Overcast
7:55 PM 33.8 °F 27.7 °F 28.4 °F 81% 30.13 in 10.0 mi WNW 6.9 mph - N/A   Overcast
8:15 PM 33.8 °F 30.8 °F 28.4 °F 81% 30.13 in 10.0 mi WNW 3.5 mph - N/A   Overcast
8:35 PM 33.8 °F 28.6 °F 28.4 °F 81% 30.14 in 10.0 mi WNW 5.8 mph - N/A   Overcast
8:55 PM 33.8 °F 28.6 °F 28.4 °F 81% 30.15 in 10.0 mi WNW 5.8 mph - N/A   Overcast
9:15 PM 33.8 °F 28.6 °F 28.4 °F 81% 30.15 in 10.0 mi NW 5.8 mph - N/A   Overcast
9:35 PM 33.8 °F 27.7 °F 26.6 °F 75% 30.16 in 10.0 mi WNW 6.9 mph - N/A   Overcast
9:55 PM 32.0 °F - 26.6 °F 80% 30.17 in 10.0 mi Calm Calm - N/A   Overcast
10:15 PM 32.0 °F 27.5 °F 26.6 °F 80% 30.19 in 10.0 mi NW 4.6 mph - N/A   Overcast
10:35 PM 32.0 °F 26.4 °F 26.6 °F 80% 30.20 in 10.0 mi NW 5.8 mph - N/A   Overcast
10:55 PM 32.0 °F 25.6 °F 26.6 °F 80% 30.21 in 10.0 mi NW 6.9 mph - N/A   Overcast
11:15 PM 32.0 °F 26.4 °F 26.6 °F 80% 30.22 in 10.0 mi WNW 5.8 mph - N/A   Overcast
11:35 PM 30.2 °F 24.3 °F 26.6 °F 86% 30.22 in 10.0 mi NW 5.8 mph - N/A   Overcast
11:55 PM 30.2 °F 26.7 °F 26.6 °F 86% 30.23 in 10.0 mi WNW 3.5 mph - N/A   Overcast